Year,Month,Day,Hour,Minute,Value (Times are PST for temperature in C)
2009,06,30,00,00,11.20
2009,06,30,00,01,11.20
2009,06,30,00,02,11.20
2009,06,30,00,03,11.20
2009,06,30,00,04,11.20
2009,06,30,00,05,11.20
2009,06,30,00,06,11.20
2009,06,30,00,07,11.20
2009,06,30,00,08,11.20
2009,06,30,00,09,11.20
2009,06,30,00,10,11.20
2009,06,30,00,11,11.10
2009,06,30,00,12,11.10
2009,06,30,00,13,11.10
2009,06,30,00,14,11.10
2009,06,30,00,15,11.10
2009,06,30,00,16,11.10
2009,06,30,00,17,11.10
2009,06,30,00,18,11.10
2009,06,30,00,19,11.10
2009,06,30,00,20,11.10
2009,06,30,00,21,11.10
2009,06,30,00,22,11.10
2009,06,30,00,23,11.10
2009,06,30,00,24,11.10
2009,06,30,00,25,10.90
2009,06,30,00,26,10.90
2009,06,30,00,27,10.90
2009,06,30,00,28,10.90
2009,06,30,00,29,10.90
2009,06,30,00,30,10.90
2009,06,30,00,31,10.90
2009,06,30,00,32,10.90
2009,06,30,00,33,10.90
2009,06,30,00,34,10.90
2009,06,30,00,35,10.90
2009,06,30,00,36,10.90
2009,06,30,00,37,10.90
2009,06,30,00,38,10.90
2009,06,30,00,39,10.90
2009,06,30,00,40,10.90
2009,06,30,00,41,10.90
2009,06,30,00,42,10.90
2009,06,30,00,43,10.90
2009,06,30,00,44,10.90
2009,06,30,00,45,10.90
2009,06,30,00,46,10.90
2009,06,30,00,47,10.90
2009,06,30,00,48,10.80
2009,06,30,00,49,10.80
2009,06,30,00,50,10.80
2009,06,30,00,51,10.80
2009,06,30,00,52,10.80
2009,06,30,00,53,10.80
2009,06,30,00,54,10.80
2009,06,30,00,55,10.80
2009,06,30,00,56,10.80
2009,06,30,00,57,10.80
2009,06,30,00,58,10.80
2009,06,30,00,59,10.80
2009,06,30,01,00,10.80
2009,06,30,01,01,10.80
2009,06,30,01,02,10.80
2009,06,30,01,03,10.80
2009,06,30,01,04,10.70
2009,06,30,01,05,10.70
2009,06,30,01,06,10.70
2009,06,30,01,07,10.70
2009,06,30,01,08,10.70
2009,06,30,01,09,10.70
2009,06,30,01,10,10.70
2009,06,30,01,11,10.70
2009,06,30,01,12,10.70
2009,06,30,01,13,10.70
2009,06,30,01,14,10.70
2009,06,30,01,15,10.70
2009,06,30,01,16,10.70
2009,06,30,01,17,10.70
2009,06,30,01,18,10.70
2009,06,30,01,19,10.70
2009,06,30,01,20,10.70
2009,06,30,01,21,10.60
2009,06,30,01,22,10.60
2009,06,30,01,23,10.60
2009,06,30,01,24,10.60
2009,06,30,01,25,10.60
2009,06,30,01,26,10.60
2009,06,30,01,27,10.60
2009,06,30,01,28,10.60
2009,06,30,01,29,10.60
2009,06,30,01,30,10.60
2009,06,30,01,31,10.60
2009,06,30,01,32,10.60
2009,06,30,01,33,10.60
2009,06,30,01,34,10.60
2009,06,30,01,35,10.60
2009,06,30,01,36,10.60
2009,06,30,01,37,10.60
2009,06,30,01,38,10.60
2009,06,30,01,39,10.60
2009,06,30,01,40,10.60
2009,06,30,01,41,10.60
2009,06,30,01,42,10.60
2009,06,30,01,43,10.70
2009,06,30,01,44,10.70
2009,06,30,01,45,10.60
2009,06,30,01,46,10.60
2009,06,30,01,47,10.60
2009,06,30,01,48,10.60
2009,06,30,01,49,10.60
2009,06,30,01,50,10.60
2009,06,30,01,51,10.60
2009,06,30,01,52,10.60
2009,06,30,01,53,10.60
2009,06,30,01,54,10.60
2009,06,30,01,55,10.60
2009,06,30,01,56,10.60
2009,06,30,01,57,10.60
2009,06,30,01,58,10.60
2009,06,30,01,59,10.60
2009,06,30,02,00,10.60
2009,06,30,02,01,10.50
2009,06,30,02,02,10.40
2009,06,30,02,03,10.40
2009,06,30,02,04,10.40
2009,06,30,02,05,10.40
2009,06,30,02,06,10.40
2009,06,30,02,07,10.40
2009,06,30,02,08,10.40
2009,06,30,02,09,10.40
2009,06,30,02,10,10.40
2009,06,30,02,11,10.40
2009,06,30,02,12,10.40
2009,06,30,02,13,10.40
2009,06,30,02,14,10.40
2009,06,30,02,15,10.30
2009,06,30,02,16,10.30
2009,06,30,02,17,10.30
2009,06,30,02,18,10.30
2009,06,30,02,19,10.40
2009,06,30,02,20,10.40
2009,06,30,02,21,10.40
2009,06,30,02,22,10.40
2009,06,30,02,23,10.40
2009,06,30,02,24,10.40
2009,06,30,02,25,10.40
2009,06,30,02,26,10.50
2009,06,30,02,27,10.60
2009,06,30,02,28,10.60
2009,06,30,02,29,10.60
2009,06,30,02,30,10.60
2009,06,30,02,31,10.60
2009,06,30,02,32,10.60
2009,06,30,02,33,10.60
2009,06,30,02,34,10.60
2009,06,30,02,35,10.60
2009,06,30,02,36,10.60
2009,06,30,02,37,10.60
2009,06,30,02,38,10.50
2009,06,30,02,39,10.40
2009,06,30,02,40,10.40
2009,06,30,02,41,10.40
2009,06,30,02,42,10.40
2009,06,30,02,43,10.40
2009,06,30,02,44,10.40
2009,06,30,02,45,10.40
2009,06,30,02,46,10.40
2009,06,30,02,47,10.40
2009,06,30,02,48,10.40
2009,06,30,02,49,10.40
2009,06,30,02,50,10.40
2009,06,30,02,51,10.40
2009,06,30,02,52,10.40
2009,06,30,02,53,10.40
2009,06,30,02,54,10.40
2009,06,30,02,55,10.40
2009,06,30,02,56,10.40
2009,06,30,02,57,10.40
2009,06,30,02,58,10.50
2009,06,30,02,59,10.60
2009,06,30,03,00,10.60
2009,06,30,03,01,10.60
2009,06,30,03,02,10.60
2009,06,30,03,03,10.60
2009,06,30,03,04,10.60
2009,06,30,03,05,10.60
2009,06,30,03,06,10.60
2009,06,30,03,07,10.50
2009,06,30,03,08,10.40
2009,06,30,03,09,10.40
2009,06,30,03,10,10.40
2009,06,30,03,11,10.40
2009,06,30,03,12,10.40
2009,06,30,03,13,10.40
2009,06,30,03,14,10.40
2009,06,30,03,15,10.40
2009,06,30,03,16,10.40
2009,06,30,03,17,10.40
2009,06,30,03,18,10.40
2009,06,30,03,19,10.40
2009,06,30,03,20,10.40
2009,06,30,03,21,10.30
2009,06,30,03,22,10.30
2009,06,30,03,23,10.30
2009,06,30,03,24,10.30
2009,06,30,03,25,10.20
2009,06,30,03,26,10.20
2009,06,30,03,27,10.20
2009,06,30,03,28,10.20
2009,06,30,03,29,10.20
2009,06,30,03,30,10.10
2009,06,30,03,31,10.10
2009,06,30,03,32,10.10
2009,06,30,03,33,10.10
2009,06,30,03,34,10.10
2009,06,30,03,35,10.10
2009,06,30,03,36,10.10
2009,06,30,03,37,10.10
2009,06,30,03,38,10.10
2009,06,30,03,39,10.10
2009,06,30,03,40,10.10
2009,06,30,03,41,10.10
2009,06,30,03,42,10.10
2009,06,30,03,43,10.10
2009,06,30,03,44,10.10
2009,06,30,03,45,10.10
2009,06,30,03,46,10.10
2009,06,30,03,47,10.10
2009,06,30,03,48,10.10
2009,06,30,03,49,10.00
2009,06,30,03,50,9.90
2009,06,30,03,51,9.90
2009,06,30,03,52,9.90
2009,06,30,03,53,9.90
2009,06,30,03,54,9.90
2009,06,30,03,55,9.80
2009,06,30,03,56,9.80
2009,06,30,03,57,9.80
2009,06,30,03,58,9.70
2009,06,30,03,59,9.70
2009,06,30,04,00,9.70
2009,06,30,04,01,9.70
2009,06,30,04,02,9.70
2009,06,30,04,03,9.60
2009,06,30,04,05,9.50
2009,06,30,04,06,9.50
2009,06,30,04,07,9.40
2009,06,30,04,08,9.40
2009,06,30,04,09,9.40
2009,06,30,04,10,9.30
2009,06,30,04,11,9.30
2009,06,30,04,12,9.30
2009,06,30,04,13,9.20
2009,06,30,04,14,9.20
2009,06,30,04,15,9.20
2009,06,30,04,16,9.20
2009,06,30,04,17,9.20
2009,06,30,04,18,9.20
2009,06,30,04,19,9.20
2009,06,30,04,20,9.20
2009,06,30,04,21,9.20
2009,06,30,04,22,9.20
2009,06,30,04,23,9.20
2009,06,30,04,24,9.20
2009,06,30,04,25,9.20
2009,06,30,04,26,9.10
2009,06,30,04,27,9.10
2009,06,30,04,28,9.10
2009,06,30,04,29,9.10
2009,06,30,04,30,9.10
2009,06,30,04,31,9.10
2009,06,30,04,32,9.10
2009,06,30,04,33,9.10
2009,06,30,04,34,9.10
2009,06,30,04,35,9.10
2009,06,30,04,36,9.00
2009,06,30,04,37,9.00
2009,06,30,04,38,9.00
2009,06,30,04,39,9.00
2009,06,30,04,40,9.00
2009,06,30,04,41,9.00
2009,06,30,04,42,9.00
2009,06,30,04,43,8.90
2009,06,30,04,44,8.90
2009,06,30,04,45,8.90
2009,06,30,04,46,8.80
2009,06,30,04,47,8.80
2009,06,30,04,48,8.80
2009,06,30,04,49,8.70
2009,06,30,04,50,8.70
2009,06,30,04,51,8.70
2009,06,30,04,52,8.70
2009,06,30,04,53,8.70
2009,06,30,04,54,8.60
2009,06,30,04,55,8.60
2009,06,30,04,56,8.50
2009,06,30,04,57,8.50
2009,06,30,04,58,8.50
2009,06,30,04,59,8.40
2009,06,30,05,00,8.40
2009,06,30,05,01,8.40
2009,06,30,05,02,8.40
2009,06,30,05,03,8.30
2009,06,30,05,04,8.30
2009,06,30,05,05,8.30
2009,06,30,05,06,8.30
2009,06,30,05,07,8.20
2009,06,30,05,08,8.20
2009,06,30,05,09,8.20
2009,06,30,05,10,8.20
2009,06,30,05,11,8.20
2009,06,30,05,12,8.20
2009,06,30,05,13,8.20
2009,06,30,05,14,8.20
2009,06,30,05,15,8.20
2009,06,30,05,16,8.20
2009,06,30,05,17,8.20
2009,06,30,05,18,8.10
2009,06,30,05,19,8.10
2009,06,30,05,20,8.10
2009,06,30,05,21,8.10
2009,06,30,05,22,8.10
2009,06,30,05,23,8.10
2009,06,30,05,24,8.10
2009,06,30,05,25,8.10
2009,06,30,05,26,8.00
2009,06,30,05,27,8.00
2009,06,30,05,28,8.00
2009,06,30,05,29,8.00
2009,06,30,05,30,8.00
2009,06,30,05,31,8.00
2009,06,30,05,32,8.00
2009,06,30,05,33,7.90
2009,06,30,05,34,7.90
2009,06,30,05,35,7.90
2009,06,30,05,36,7.90
2009,06,30,05,37,7.90
2009,06,30,05,38,7.90
2009,06,30,05,39,7.80
2009,06,30,05,40,7.80
2009,06,30,05,41,7.80
2009,06,30,05,42,7.80
2009,06,30,05,43,7.80
2009,06,30,05,44,7.80
2009,06,30,05,45,7.80
2009,06,30,05,46,7.90
2009,06,30,05,47,7.90
2009,06,30,05,48,7.90
2009,06,30,05,49,7.90
2009,06,30,05,50,7.90
2009,06,30,05,51,7.90
2009,06,30,05,52,7.90
2009,06,30,05,53,7.90
2009,06,30,05,54,7.90
2009,06,30,05,55,7.90
2009,06,30,05,56,7.90
2009,06,30,05,57,7.90
2009,06,30,05,58,7.90
2009,06,30,05,59,7.90
2009,06,30,06,00,8.00
2009,06,30,06,01,8.00
2009,06,30,06,02,8.00
2009,06,30,06,03,8.10
2009,06,30,06,04,8.10
2009,06,30,06,05,8.20
2009,06,30,06,06,8.20
2009,06,30,06,07,8.20
2009,06,30,06,08,8.20
2009,06,30,06,09,8.20
2009,06,30,06,10,8.30
2009,06,30,06,11,8.30
2009,06,30,06,12,8.30
2009,06,30,06,13,8.30
2009,06,30,06,14,8.40
2009,06,30,06,15,8.40
2009,06,30,06,16,8.40
2009,06,30,06,17,8.50
2009,06,30,06,18,8.50
2009,06,30,06,19,8.60
2009,06,30,06,20,8.70
2009,06,30,06,21,8.70
2009,06,30,06,22,8.80
2009,06,30,06,23,8.90
2009,06,30,06,24,9.00
2009,06,30,06,25,9.10
2009,06,30,06,26,9.20
2009,06,30,06,27,9.20
2009,06,30,06,28,9.30
2009,06,30,06,29,9.50
2009,06,30,06,30,9.50
2009,06,30,06,31,9.60
2009,06,30,06,32,9.60
2009,06,30,06,33,9.70
2009,06,30,06,34,9.80
2009,06,30,06,35,9.90
2009,06,30,06,36,9.90
2009,06,30,06,37,10.10
2009,06,30,06,38,10.20
2009,06,30,06,39,10.30
2009,06,30,06,40,10.40
2009,06,30,06,41,10.40
2009,06,30,06,42,10.50
2009,06,30,06,43,10.60
2009,06,30,06,44,10.60
2009,06,30,06,45,10.60
2009,06,30,06,46,10.60
2009,06,30,06,47,10.60
2009,06,30,06,48,10.70
2009,06,30,06,49,10.70
2009,06,30,06,50,10.80
2009,06,30,06,51,10.90
2009,06,30,06,52,11.00
2009,06,30,06,53,11.10
2009,06,30,06,54,11.10
2009,06,30,06,55,11.20
2009,06,30,06,56,11.30
2009,06,30,06,57,11.40
2009,06,30,06,58,11.40
2009,06,30,06,59,11.60
2009,06,30,07,00,11.70
2009,06,30,07,01,11.80
2009,06,30,07,02,11.90
2009,06,30,07,03,12.10
2009,06,30,07,04,12.20
2009,06,30,07,05,12.30
2009,06,30,07,06,12.40
2009,06,30,07,07,12.50
2009,06,30,07,08,12.50
2009,06,30,07,09,12.60
2009,06,30,07,10,12.70
2009,06,30,07,11,12.80
2009,06,30,07,12,12.80
2009,06,30,07,13,12.90
2009,06,30,07,14,13.00
2009,06,30,07,15,13.10
2009,06,30,07,16,13.20
2009,06,30,07,17,13.30
2009,06,30,07,18,13.40
2009,06,30,07,19,13.50
2009,06,30,07,20,13.60
2009,06,30,07,21,13.70
2009,06,30,07,22,13.70
2009,06,30,07,23,13.70
2009,06,30,07,24,13.80
2009,06,30,07,25,13.90
2009,06,30,07,26,14.00
2009,06,30,07,27,14.10
2009,06,30,07,28,14.10
2009,06,30,07,29,14.20
2009,06,30,07,30,14.30
2009,06,30,07,31,14.40
2009,06,30,07,32,14.50
2009,06,30,07,33,14.50
2009,06,30,07,34,14.60
2009,06,30,07,35,14.60
2009,06,30,07,36,14.60
2009,06,30,07,37,14.60
2009,06,30,07,38,14.70
2009,06,30,07,39,14.70
2009,06,30,07,40,14.80
2009,06,30,07,41,14.80
2009,06,30,07,42,14.90
2009,06,30,07,43,15.00
2009,06,30,07,44,15.10
2009,06,30,07,45,15.20
2009,06,30,07,46,15.20
2009,06,30,07,47,15.30
2009,06,30,07,48,15.30
2009,06,30,07,49,15.30
2009,06,30,07,50,15.30
2009,06,30,07,51,15.30
2009,06,30,07,52,15.30
2009,06,30,07,53,15.40
2009,06,30,07,54,15.40
2009,06,30,07,55,15.40
2009,06,30,07,56,15.40
2009,06,30,07,57,15.40
2009,06,30,07,58,15.30
2009,06,30,07,59,15.30
2009,06,30,08,00,15.30
2009,06,30,08,01,15.30
2009,06,30,08,02,15.30
2009,06,30,08,03,15.30
2009,06,30,08,04,15.30
2009,06,30,08,05,15.20
2009,06,30,08,06,15.20
2009,06,30,08,07,15.20
2009,06,30,08,08,15.20
2009,06,30,08,09,15.10
2009,06,30,08,10,15.10
2009,06,30,08,11,15.00
2009,06,30,08,12,15.00
2009,06,30,08,13,14.90
2009,06,30,08,14,14.90
2009,06,30,08,15,14.90
2009,06,30,08,16,14.80
2009,06,30,08,17,14.80
2009,06,30,08,18,14.70
2009,06,30,08,19,14.70
2009,06,30,08,20,14.70
2009,06,30,08,21,14.70
2009,06,30,08,22,14.70
2009,06,30,08,23,14.70
2009,06,30,08,24,14.80
2009,06,30,08,25,14.80
2009,06,30,08,26,14.90
2009,06,30,08,27,15.00
2009,06,30,08,28,15.10
2009,06,30,08,29,15.10
2009,06,30,08,30,15.10
2009,06,30,08,31,15.10
2009,06,30,08,32,15.00
2009,06,30,08,33,15.00
2009,06,30,08,34,14.90
2009,06,30,08,35,14.90
2009,06,30,08,36,14.90
2009,06,30,08,37,14.90
2009,06,30,08,38,14.80
2009,06,30,08,39,14.90
2009,06,30,08,40,14.90
2009,06,30,08,41,15.00
2009,06,30,08,42,15.00
2009,06,30,08,43,15.10
2009,06,30,08,44,15.10
2009,06,30,08,45,15.20
2009,06,30,08,46,15.10
2009,06,30,08,47,15.20
2009,06,30,08,48,15.20
2009,06,30,08,49,15.20
2009,06,30,08,50,15.20
2009,06,30,08,51,15.20
2009,06,30,08,52,15.30
2009,06,30,08,53,15.30
2009,06,30,08,54,15.30
2009,06,30,08,55,15.30
2009,06,30,08,56,15.30
2009,06,30,08,57,15.30
2009,06,30,08,58,15.30
2009,06,30,08,59,15.30
2009,06,30,09,00,15.30
2009,06,30,09,01,15.30
2009,06,30,09,02,15.30
2009,06,30,09,03,15.30
2009,06,30,09,04,15.30
2009,06,30,09,05,15.30
2009,06,30,09,06,15.40
2009,06,30,09,07,15.40
2009,06,30,09,08,15.50
2009,06,30,09,09,15.50
2009,06,30,09,10,15.60
2009,06,30,09,11,15.60
2009,06,30,09,12,15.60
2009,06,30,09,13,15.60
2009,06,30,09,14,15.60
2009,06,30,09,15,15.60
2009,06,30,09,16,15.70
2009,06,30,09,17,15.70
2009,06,30,09,18,15.80
2009,06,30,09,19,15.80
2009,06,30,09,20,15.80
2009,06,30,09,21,15.80
2009,06,30,09,22,15.90
2009,06,30,09,23,15.90
2009,06,30,09,24,16.10
2009,06,30,09,25,16.10
2009,06,30,09,26,16.20
2009,06,30,09,27,16.30
2009,06,30,09,28,16.30
2009,06,30,09,29,16.30
2009,06,30,09,30,16.30
2009,06,30,09,31,16.30
2009,06,30,09,32,16.10
2009,06,30,09,33,16.10
2009,06,30,09,34,16.00
2009,06,30,09,35,15.90
2009,06,30,09,36,15.90
2009,06,30,09,37,16.10
2009,06,30,09,38,16.10
2009,06,30,09,39,16.10
2009,06,30,09,40,16.20
2009,06,30,09,41,16.20
2009,06,30,09,42,16.30
2009,06,30,09,43,16.30
2009,06,30,09,44,16.40
2009,06,30,09,45,16.50
2009,06,30,09,46,16.60
2009,06,30,09,47,16.50
2009,06,30,09,48,16.40
2009,06,30,09,49,16.50
2009,06,30,09,50,16.60
2009,06,30,09,51,16.70
2009,06,30,09,52,16.80
2009,06,30,09,53,16.90
2009,06,30,09,54,17.00
2009,06,30,09,55,16.90
2009,06,30,09,56,16.80
2009,06,30,09,57,16.70
2009,06,30,09,58,16.50
2009,06,30,09,59,16.40
2009,06,30,10,00,16.40
2009,06,30,10,01,16.40
2009,06,30,10,02,16.60
2009,06,30,10,03,16.60
2009,06,30,10,04,16.60
2009,06,30,10,05,16.50
2009,06,30,10,06,16.40
2009,06,30,10,07,16.40
2009,06,30,10,08,16.30
2009,06,30,10,09,16.30
2009,06,30,10,10,16.30
2009,06,30,10,11,16.40
2009,06,30,10,12,16.40
2009,06,30,10,13,16.60
2009,06,30,10,14,16.60
2009,06,30,10,15,16.60
2009,06,30,10,16,16.60
2009,06,30,10,17,16.60
2009,06,30,10,18,16.40
2009,06,30,10,19,16.40
2009,06,30,10,20,16.40
2009,06,30,10,21,16.40
2009,06,30,10,22,16.40
2009,06,30,10,23,16.40
2009,06,30,10,24,16.40
2009,06,30,10,25,16.40
2009,06,30,10,26,16.50
2009,06,30,10,27,16.40
2009,06,30,10,28,16.40
2009,06,30,10,29,16.30
2009,06,30,10,30,16.20
2009,06,30,10,31,16.20
2009,06,30,10,32,16.10
2009,06,30,10,33,16.10
2009,06,30,10,34,16.10
2009,06,30,10,35,16.10
2009,06,30,10,36,16.10
2009,06,30,10,37,16.20
2009,06,30,10,38,16.30
2009,06,30,10,39,16.30
2009,06,30,10,40,16.30
2009,06,30,10,41,16.30
2009,06,30,10,42,16.30
2009,06,30,10,43,16.40
2009,06,30,10,44,16.40
2009,06,30,10,45,16.40
2009,06,30,10,46,16.40
2009,06,30,10,47,16.40
2009,06,30,10,48,16.40
2009,06,30,10,49,16.40
2009,06,30,10,50,16.40
2009,06,30,10,51,16.40
2009,06,30,10,52,16.40
2009,06,30,10,53,16.40
2009,06,30,10,54,16.40
2009,06,30,10,55,16.40
2009,06,30,10,56,16.50
2009,06,30,10,57,16.60
2009,06,30,10,58,16.60
2009,06,30,10,59,16.50
2009,06,30,11,00,16.60
2009,06,30,11,01,16.70
2009,06,30,11,02,16.60
2009,06,30,11,03,16.50
2009,06,30,11,04,16.40
2009,06,30,11,05,16.30
2009,06,30,11,06,16.30
2009,06,30,11,07,16.40
2009,06,30,11,08,16.40
2009,06,30,11,09,16.40
2009,06,30,11,10,16.30
2009,06,30,11,11,16.30
2009,06,30,11,12,16.30
2009,06,30,11,13,16.20
2009,06,30,11,14,16.20
2009,06,30,11,15,16.10
2009,06,30,11,16,16.10
2009,06,30,11,17,16.10
2009,06,30,11,18,16.10
2009,06,30,11,19,16.20
2009,06,30,11,20,16.30
2009,06,30,11,21,16.40
2009,06,30,11,22,16.40
2009,06,30,11,23,16.60
2009,06,30,11,24,16.70
2009,06,30,11,25,16.70
2009,06,30,11,26,16.60
2009,06,30,11,27,16.60
2009,06,30,11,28,16.60
2009,06,30,11,29,16.70
2009,06,30,11,30,16.80
2009,06,30,11,31,16.80
2009,06,30,11,32,16.90
2009,06,30,11,33,16.90
2009,06,30,11,34,16.80
2009,06,30,11,35,16.70
2009,06,30,11,36,16.70
2009,06,30,11,37,16.70
2009,06,30,11,38,16.80
2009,06,30,11,39,16.90
2009,06,30,11,40,17.00
2009,06,30,11,41,17.10
2009,06,30,11,42,17.20
2009,06,30,11,43,17.20
2009,06,30,11,44,17.20
2009,06,30,11,45,17.30
2009,06,30,11,46,17.30
2009,06,30,11,47,17.30
2009,06,30,11,48,17.20
2009,06,30,11,49,17.00
2009,06,30,11,50,16.90
2009,06,30,11,51,16.90
2009,06,30,11,52,17.00
2009,06,30,11,53,17.00
2009,06,30,11,54,17.10
2009,06,30,11,55,17.10
2009,06,30,11,56,17.10
2009,06,30,11,57,17.20
2009,06,30,11,58,17.20
2009,06,30,11,59,17.20
2009,06,30,12,00,17.10
2009,06,30,12,01,17.10
2009,06,30,12,02,17.10
2009,06,30,12,03,17.10
2009,06,30,12,04,17.10
2009,06,30,12,05,17.20
2009,06,30,12,06,17.30
2009,06,30,12,07,17.20
2009,06,30,12,08,17.10
2009,06,30,12,09,17.00
2009,06,30,12,10,17.00
2009,06,30,12,11,17.10
2009,06,30,12,12,17.10
2009,06,30,12,13,17.30
2009,06,30,12,14,17.50
2009,06,30,12,15,17.60
2009,06,30,12,16,17.70
2009,06,30,12,17,17.50
2009,06,30,12,18,17.40
2009,06,30,12,19,17.40
2009,06,30,12,20,17.40
2009,06,30,12,21,17.40
2009,06,30,12,22,17.40
2009,06,30,12,23,17.40
2009,06,30,12,24,17.40
2009,06,30,12,25,17.40
2009,06,30,12,26,17.50
2009,06,30,12,27,17.50
2009,06,30,12,28,17.60
2009,06,30,12,29,17.50
2009,06,30,12,30,17.50
2009,06,30,12,31,17.30
2009,06,30,12,32,17.30
2009,06,30,12,33,17.30
2009,06,30,12,34,17.30
2009,06,30,12,35,17.30
2009,06,30,12,36,17.30
2009,06,30,12,37,17.30
2009,06,30,12,38,17.30
2009,06,30,12,39,17.40
2009,06,30,12,40,17.50
2009,06,30,12,41,17.70
2009,06,30,12,42,17.60
2009,06,30,12,43,17.50
2009,06,30,12,44,17.40
2009,06,30,12,45,17.40
2009,06,30,12,46,17.60
2009,06,30,12,47,17.80
2009,06,30,12,48,17.90
2009,06,30,12,49,18.10
2009,06,30,12,50,18.10
2009,06,30,12,51,18.20
2009,06,30,12,52,18.20
2009,06,30,12,53,18.20
2009,06,30,12,54,18.20
2009,06,30,12,55,18.20
2009,06,30,12,56,18.20
2009,06,30,12,57,18.20
2009,06,30,12,58,18.20
2009,06,30,12,59,18.20
2009,06,30,13,00,18.20
2009,06,30,13,01,18.10
2009,06,30,13,02,18.10
2009,06,30,13,03,18.10
2009,06,30,13,04,18.10
2009,06,30,13,05,18.10
2009,06,30,13,06,18.00
2009,06,30,13,07,18.10
2009,06,30,13,08,18.10
2009,06,30,13,09,18.10
2009,06,30,13,10,18.10
2009,06,30,13,11,18.00
2009,06,30,13,12,17.90
2009,06,30,13,13,18.00
2009,06,30,13,14,18.10
2009,06,30,13,15,18.10
2009,06,30,13,16,18.10
2009,06,30,13,17,18.10
2009,06,30,13,18,18.10
2009,06,30,13,19,18.10
2009,06,30,13,20,18.10
2009,06,30,13,21,18.10
2009,06,30,13,22,18.10
2009,06,30,13,23,17.90
2009,06,30,13,24,18.10
2009,06,30,13,25,18.10
2009,06,30,13,26,18.00
2009,06,30,13,27,17.90
2009,06,30,13,28,17.90
2009,06,30,13,29,18.10
2009,06,30,13,30,18.20
2009,06,30,13,31,18.00
2009,06,30,13,32,17.90
2009,06,30,13,33,17.90
2009,06,30,13,34,18.10
2009,06,30,13,35,18.20
2009,06,30,13,36,18.30
2009,06,30,13,37,18.50
2009,06,30,13,38,18.60
2009,06,30,13,39,18.60
2009,06,30,13,40,18.60
2009,06,30,13,41,18.50
2009,06,30,13,42,18.40
2009,06,30,13,43,18.30
2009,06,30,13,44,18.20
2009,06,30,13,45,18.10
2009,06,30,13,46,18.00
2009,06,30,13,47,17.90
2009,06,30,13,48,17.90
2009,06,30,13,49,17.90
2009,06,30,13,50,18.00
2009,06,30,13,51,18.00
2009,06,30,13,52,17.90
2009,06,30,13,53,17.90
2009,06,30,13,54,17.90
2009,06,30,13,55,18.00
2009,06,30,13,56,18.10
2009,06,30,13,57,18.10
2009,06,30,13,58,17.90
2009,06,30,13,59,17.90
2009,06,30,14,00,17.90
2009,06,30,14,01,17.90
2009,06,30,14,02,17.90
2009,06,30,14,03,17.90
2009,06,30,14,04,17.90
2009,06,30,14,05,18.00
2009,06,30,14,06,18.10
2009,06,30,14,07,18.20
2009,06,30,14,08,18.40
2009,06,30,14,09,18.40
2009,06,30,14,10,18.40
2009,06,30,14,11,18.50
2009,06,30,14,12,18.60
2009,06,30,14,13,18.80
2009,06,30,14,14,18.90
2009,06,30,14,15,19.00
2009,06,30,14,16,19.10
2009,06,30,14,17,19.10
2009,06,30,14,18,19.10
2009,06,30,14,19,19.00
2009,06,30,14,20,18.90
2009,06,30,14,21,18.80
2009,06,30,14,22,18.90
2009,06,30,14,23,18.70
2009,06,30,14,24,18.70
2009,06,30,14,25,18.70
2009,06,30,14,26,18.70
2009,06,30,14,27,18.70
2009,06,30,14,28,18.80
2009,06,30,14,29,18.80
2009,06,30,14,30,18.60
2009,06,30,14,31,18.50
2009,06,30,14,32,18.40
2009,06,30,14,33,18.40
2009,06,30,14,34,18.50
2009,06,30,14,35,18.60
2009,06,30,14,36,18.60
2009,06,30,14,37,18.60
2009,06,30,14,38,18.50
2009,06,30,14,39,18.40
2009,06,30,14,40,18.30
2009,06,30,14,41,18.40
2009,06,30,14,42,18.50
2009,06,30,14,43,18.60
2009,06,30,14,44,18.70
2009,06,30,14,45,18.90
2009,06,30,14,46,19.00
2009,06,30,14,47,19.10
2009,06,30,14,48,19.00
2009,06,30,14,49,18.90
2009,06,30,14,50,18.90
2009,06,30,14,51,18.90
2009,06,30,14,52,19.00
2009,06,30,14,53,19.10
2009,06,30,14,54,19.10
2009,06,30,14,55,19.10
2009,06,30,14,56,19.20
2009,06,30,14,57,19.30
2009,06,30,14,58,19.30
2009,06,30,14,59,19.30
2009,06,30,15,00,19.40
2009,06,30,15,01,19.40
2009,06,30,15,02,19.40
2009,06,30,15,03,19.50
2009,06,30,15,04,19.60
2009,06,30,15,05,19.60
2009,06,30,15,06,19.60
2009,06,30,15,07,19.60
2009,06,30,15,08,19.60
2009,06,30,15,09,19.70
2009,06,30,15,10,19.70
2009,06,30,15,11,19.80
2009,06,30,15,12,19.80
2009,06,30,15,13,19.70
2009,06,30,15,14,19.50
2009,06,30,15,15,19.20
2009,06,30,15,16,19.10
2009,06,30,15,17,19.00
2009,06,30,15,18,18.90
2009,06,30,15,19,19.10
2009,06,30,15,20,18.90
2009,06,30,15,21,18.90
2009,06,30,15,22,18.90
2009,06,30,15,23,18.90
2009,06,30,15,24,18.90
2009,06,30,15,25,19.10
2009,06,30,15,26,19.20
2009,06,30,15,27,19.30
2009,06,30,15,28,19.40
2009,06,30,15,29,19.40
2009,06,30,15,30,19.40
2009,06,30,15,31,19.50
2009,06,30,15,32,19.60
2009,06,30,15,33,19.60
2009,06,30,15,34,19.50
2009,06,30,15,35,19.60
2009,06,30,15,36,19.60
2009,06,30,15,37,19.80
2009,06,30,15,38,19.90
2009,06,30,15,39,19.90
2009,06,30,15,40,19.90
2009,06,30,15,41,19.80
2009,06,30,15,42,19.70
2009,06,30,15,43,19.60
2009,06,30,15,44,19.60
2009,06,30,15,45,19.50
2009,06,30,15,46,19.40
2009,06,30,15,47,19.30
2009,06,30,15,48,19.30
2009,06,30,15,49,19.40
2009,06,30,15,50,19.40
2009,06,30,15,51,19.50
2009,06,30,15,52,19.60
2009,06,30,15,53,19.70
2009,06,30,15,54,19.70
2009,06,30,15,55,19.70
2009,06,30,15,56,19.70
2009,06,30,15,57,19.80
2009,06,30,15,58,19.80
2009,06,30,15,59,19.80
2009,06,30,16,00,19.80
2009,06,30,16,01,19.70
2009,06,30,16,02,19.70
2009,06,30,16,03,19.80
2009,06,30,16,04,19.80
2009,06,30,16,05,19.90
2009,06,30,16,06,19.90
2009,06,30,16,07,19.80
2009,06,30,16,08,19.80
2009,06,30,16,09,19.80
2009,06,30,16,10,19.70
2009,06,30,16,11,19.70
2009,06,30,16,12,19.70
2009,06,30,16,13,19.80
2009,06,30,16,14,19.80
2009,06,30,16,15,19.80
2009,06,30,16,16,19.70
2009,06,30,16,17,19.70
2009,06,30,16,18,19.60
2009,06,30,16,19,19.60
2009,06,30,16,20,19.60
2009,06,30,16,21,19.60
2009,06,30,16,22,19.60
2009,06,30,16,23,19.60
2009,06,30,16,24,19.60
2009,06,30,16,25,19.60
2009,06,30,16,26,19.60
2009,06,30,16,27,19.60
2009,06,30,16,28,19.70
2009,06,30,16,29,19.70
2009,06,30,16,30,19.70
2009,06,30,16,31,19.70
2009,06,30,16,32,19.80
2009,06,30,16,33,19.90
2009,06,30,16,34,20.10
2009,06,30,16,35,20.20
2009,06,30,16,36,20.20
2009,06,30,16,37,20.10
2009,06,30,16,38,20.00
2009,06,30,16,39,19.70
2009,06,30,16,40,19.60
2009,06,30,16,41,19.50
2009,06,30,16,42,19.50
2009,06,30,16,43,19.40
2009,06,30,16,44,19.40
2009,06,30,16,45,19.40
2009,06,30,16,46,19.40
2009,06,30,16,47,19.40
2009,06,30,16,48,19.50
2009,06,30,16,49,19.60
2009,06,30,16,50,19.70
2009,06,30,16,51,19.80
2009,06,30,16,52,19.80
2009,06,30,16,53,19.70
2009,06,30,16,54,19.70
2009,06,30,16,55,19.70
2009,06,30,16,56,19.70
2009,06,30,16,57,19.80
2009,06,30,16,58,19.80
2009,06,30,16,59,19.80
2009,06,30,17,00,19.90
2009,06,30,17,01,19.90
2009,06,30,17,02,19.90
2009,06,30,17,03,19.90
2009,06,30,17,04,20.00
2009,06,30,17,05,20.10
2009,06,30,17,06,20.10
2009,06,30,17,07,20.10
2009,06,30,17,08,20.10
2009,06,30,17,09,20.10
2009,06,30,17,10,20.10
2009,06,30,17,11,20.10
2009,06,30,17,12,20.10
2009,06,30,17,13,20.10
2009,06,30,17,14,20.10
2009,06,30,17,15,20.00
2009,06,30,17,16,19.90
2009,06,30,17,17,19.90
2009,06,30,17,18,19.80
2009,06,30,17,19,19.70
2009,06,30,17,20,19.70
2009,06,30,17,21,19.70
2009,06,30,17,22,19.70
2009,06,30,17,23,19.70
2009,06,30,17,24,19.70
2009,06,30,17,25,19.60
2009,06,30,17,26,19.60
2009,06,30,17,27,19.60